DW0148 Weather Reports


time (UTC)temp
F
wind
direction
speed
knots
gust
knots
rain 1hr
in
rain 24hr
in
rain mn
in
humidity
%
barometer
mb
20260831153556 86 205 0.0 0.0 0.00 0.00 0.00 72 1019.6
20260831153043 86 201 0.0 0.0 0.00 0.00 0.00 71 1019.6
20260831152521 86 259 0.0 0.0 0.00 0.00 0.00 75 1019.6
20260831151959 86 334 0.0 0.0 0.00 0.00 0.00 73 1019.6
20260831151442 86 221 0.0 0.0 0.00 0.00 0.00 75 1019.6
20260831150856 85 236 0.0 0.0 0.00 0.00 0.00 74 1019.6
20260831150343 85 276 0.0 0.0 0.00 0.00 0.00 77 1019.6
20260831145839 85 250 0.0 0.0 0.00 0.00 0.00 76 1019.6
20260831145317 85 285 0.0 0.0 0.00 0.00 0.00 74 1019.6
20260831144800 85 244 0.0 0.0 0.00 0.00 0.00 75 1019.6
20260831144216 84 149 0.0 0.0 0.00 0.00 0.00 74 1019.6
20260831143706 84 92 0.0 0.0 0.00 0.00 0.00 79 1019.6
20260831143201 84 276 0.0 0.0 0.00 0.00 0.00 78 1019.6
20260831142659 84 242 0.0 0.0 0.00 0.00 0.00 77 1019.6
20260831142114 84 162 0.0 0.0 0.00 0.00 0.00 78 1019.6
20260831141601 84 243 0.0 0.0 0.00 0.00 0.00 78 1019.6
20260831141057 84 197 0.0 0.0 0.00 0.00 0.00 80 1019.3
20260831140555 84 103 0.0 0.0 0.00 0.00 0.00 80 1019.3
20260831140020 83 172 0.0 0.0 0.00 0.00 0.00 81 1019.6
20260831135517 82 136 0.0 0.0 0.00 0.00 0.00 83 1019.6
20260831135013 81 181 0.0 0.0 0.00 0.00 0.00 84 1019.3
20260831134437 80 181 0.0 0.0 0.00 0.00 0.00 87 1019.3
20260831133933 79 181 0.0 0.0 0.00 0.00 0.00 89 1019.3
20260831133427 79 75 0.0 0.0 0.00 0.00 0.00 88 1019.6
20260831132920 77 91 0.0 0.0 0.00 0.00 0.00 94 1019.6
20260831132412 76 90 0.0 0.0 0.00 0.00 0.00 96 1019.6
20260831131901 75 89 0.0 0.0 0.00 0.00 0.00 95 1019.6
20260831131254 75 79 0.0 0.0 0.00 0.00 0.00 95 1019.6
20260831130752 74 41 0.0 0.0 0.00 0.00 0.00 95 1019.6
20260831130247 74 72 0.0 0.0 0.00 0.00 0.00 95 1019.6
20260831125745 73 73 0.0 0.0 0.00 0.00 0.00 95 1019.6
20260831125238 73 72 0.0 0.0 0.00 0.00 0.00 95 1019.3
20260831124735 72 72 0.0 0.0 0.00 0.00 0.00 95 1019.3
20260831124232 72 72 0.0 0.0 0.00 0.00 0.00 95 1019.3
20260831123728 71 72 0.0 0.0 0.00 0.00 0.00 95 1019.3
20260831123224 71 72 0.0 0.0 0.00 0.00 0.00 95 1019.3
20260831122716 71 72 0.0 0.0 0.00 0.00 0.00 95 1019.3
20260831122138 71 72 0.0 0.0 0.00 0.00 0.00 95 1019.3
20260831121556 71 72 0.0 0.0 0.00 0.00 0.00 95 1019.3
20260831121055 70 72 0.0 0.0 0.00 0.00 0.00 95 1019.3
20260831120549 70 73 0.0 0.0 0.00 0.00 0.00 95 1019.3
20260831120035 70 73 0.0 0.0 0.00 0.00 0.00 95 1019.0
20260831115529 70 72 0.0 0.0 0.00 0.00 0.00 95 1019.0
20260831115025 70 72 0.0 0.0 0.00 0.00 0.00 95 1019.0
20260831114520 70 72 0.0 0.0 0.00 0.00 0.00 95 1019.0
20260831114005 70 73 0.0 0.0 0.00 0.00 0.00 95 1019.0
20260831113414 70 72 0.0 0.0 0.00 0.00 0.00 95 1018.6
20260831112841 69 72 0.0 0.0 0.00 0.00 0.00 95 1018.6
20260831112339 69 72 0.0 0.0 0.00 0.00 0.00 95 1018.6
20260831111838 69 73 0.0 0.0 0.00 0.00 0.00 95 1018.6
20260831111335 69 72 0.0 0.0 0.00 0.00 0.00 95 1018.6
20260831110832 69 72 0.0 0.0 0.00 0.00 0.00 95 1018.6
20260831110330 69 72 0.0 0.0 0.00 0.00 0.00 95 1018.6
20260831105829 69 72 0.0 0.0 0.00 0.00 0.00 95 1018.6
20260831105324 69 73 0.0 0.0 0.00 0.00 0.00 95 1018.6
20260831104822 69 72 0.0 0.0 0.00 0.00 0.00 95 1018.3
20260831104315 69 72 0.0 0.0 0.00 0.00 0.00 95 1018.3
20260831103758 69 73 0.0 0.0 0.00 0.00 0.00 95 1018.6
20260831103256 69 72 0.0 0.0 0.00 0.00 0.00 95 1018.6
20260831102753 69 72 0.0 0.0 0.00 0.00 0.00 95 1018.6
20260831102248 69 72 0.0 0.0 0.00 0.00 0.00 95 1018.3
20260831101715 69 73 0.0 0.0 0.00 0.00 0.00 95 1018.3
20260831101210 69 73 0.0 0.0 0.00 0.00 0.00 95 1018.3
20260831100629 69 72 0.0 0.0 0.00 0.00 0.00 95 1018.3
20260831100055 69 72 0.0 0.0 0.00 0.00 0.00 95 1018.3
20260831095544 70 72 0.0 0.0 0.00 0.00 0.00 95 1017.9
20260831095042 70 72 0.0 0.0 0.00 0.00 0.00 95 1018.3
20260831094538 70 72 0.0 0.0 0.00 0.00 0.00 95 1017.9
20260831093929 70 72 0.0 0.0 0.00 0.00 0.00 95 1017.9
20260831093426 70 72 0.0 0.0 0.00 0.00 0.00 95 1018.3
20260831092922 70 72 0.0 0.0 0.00 0.00 0.00 95 1017.9
20260831092346 70 72 0.0 0.0 0.00 0.00 0.00 95 1017.9
20260831091838 70 72 0.0 0.0 0.00 0.00 0.00 95 1017.9
20260831091335 70 72 0.0 0.0 0.00 0.00 0.00 95 1017.9
20260831090833 70 72 0.0 0.0 0.00 0.00 0.00 95 1017.9
20260831090331 70 72 0.0 0.0 0.00 0.00 0.00 95 1017.9
20260831085828 70 73 0.0 0.0 0.00 0.00 0.00 95 1017.9
20260831085244 70 73 0.0 0.0 0.00 0.00 0.00 95 1017.9
20260831084740 70 72 0.0 0.0 0.00 0.00 0.00 95 1017.9
20260831084238 70 72 0.0 0.0 0.00 0.00 0.00 95 1017.9
20260831083735 70 73 0.0 0.0 0.00 0.00 0.00 95 1017.9
20260831083232 70 72 0.0 0.0 0.00 0.00 0.00 95 1017.9
20260831082730 70 72 0.0 0.0 0.00 0.00 0.00 95 1017.9
20260831082224 70 72 0.0 0.0 0.00 0.00 0.00 95 1017.6
20260831081717 70 72 0.0 0.0 0.00 0.00 0.00 95 1017.9